FW3304 Weather Reports


Display with metric or nautical units.
time (UTC)temp
F
wind
direction
speed
MPH
gust
MPH
rain 1hr
in
rain 24hr
in
rain mn
in
humidity
%
barometer
mb
20260904231532 93 71 0.0 3.0 0.00 0.00 0.00 68 1011.9
20260904230035 93 76 2.0 5.0 0.00 0.00 0.00 66 1014.7
20260904230031 93 71 2.0 4.0 0.00 0.00 0.00 66 1011.8
20260904224530 94 71 2.0 4.0 0.00 0.00 0.00 66 1011.9
20260904223029 94 72 2.0 5.0 0.00 0.00 0.00 62 1011.9
20260904223015 94 76 2.0 7.0 0.00 0.00 0.00 62 1014.8
20260904221529 94 71 2.0 5.0 0.00 0.00 0.00 62 1011.9
20260904220029 95 72 3.0 6.0 0.00 0.00 0.00 59 1011.9
20260904220015 95 61 2.0 7.0 0.00 0.00 0.00 59 1014.8
20260904214528 96 63 2.0 4.0 0.00 0.00 0.00 58 1011.9
20260904213027 97 321 1.0 3.0 0.00 0.00 0.00 55 1011.9
20260904213020 97 323 1.0 6.0 0.00 0.00 0.00 55 1014.7
20260904211523 97 321 1.0 4.0 0.00 0.00 0.00 54 1012.2
20260904210035 96 334 2.0 10.0 0.00 0.00 0.00 59 1015.3
20260904210026 96 340 1.0 4.0 0.00 0.00 0.00 59 1012.4
20260904204517 94 340 2.0 6.0 0.00 0.00 0.00 60 1012.7
20260904203021 92 333 3.0 6.0 0.00 0.00 0.00 63 1012.9
20260904203015 92 299 4.0 13.0 0.00 0.00 0.00 63 1015.7
20260904201513 90 309 3.0 8.0 0.00 0.00 0.00 65 1013.0
20260904200015 92 323 4.0 16.0 0.00 0.00 0.00 65 1016.1
20260904194512 91 8 3.0 8.0 0.00 0.00 0.00 65 1013.6
20260904193016 88 340 7.0 27.0 0.00 0.00 0.00 71 1016.4
20260904193012 88 340 2.0 10.0 0.00 0.00 0.00 71 1013.7
20260904191511 86 342 8.0 15.0 0.00 0.00 0.00 68 1014.1
20260904190035 86 21 10.0 27.0 0.00 0.00 0.00 65 1016.7
20260904190010 86 321 10.0 19.0 0.00 0.00 0.00 65 1014.2
20260904184509 86 20 7.0 18.0 0.00 0.00 0.00 70 1014.3
20260904183015 94 292 2.0 9.0 0.00 0.00 0.00 63 1017.2
20260904183010 94 48 5.0 6.0 0.00 0.00 0.00 63 1014.4
20260904181528 95 296 2.0 6.0 0.00 0.00 0.00 61 1014.4
20260904180020 95 168 4.0 10.0 0.00 0.00 0.00 60 1017.1
20260904180009 95 166 2.0 8.0 0.00 0.00 0.00 60 1014.4
20260904174506 95 193 3.0 8.0 0.00 0.00 0.00 61 1014.5
20260904173015 95 170 4.0 10.0 0.00 0.00 0.00 63 1017.2
20260904173003 95 148 6.0 9.0 0.00 0.00 0.00 63 1014.5
20260904171619 95 188 4.0 7.0 0.00 0.00 0.00 62 1014.7
20260904170056 95 157 4.0 7.0 0.00 0.00 0.00 63 1014.8
20260904170016 95 145 3.0 8.0 0.00 0.00 0.00 64 1017.4
20260904164553 94 134 2.0 6.0 0.00 0.00 0.00 65 1014.9
20260904163049 93 180 2.0 6.0 0.00 0.00 0.00 65 1015.1
20260904163015 93 186 2.0 8.0 0.00 0.00 0.00 65 1017.8
20260904161545 93 195 2.0 6.0 0.00 0.00 0.00 66 1015.1
20260904160042 93 205 1.0 6.0 0.00 0.00 0.00 68 1015.0
20260904160015 93 201 2.0 6.0 0.00 0.00 0.00 68 1018.0
20260904154545 92 203 3.0 6.0 0.00 0.00 0.00 66 1015.2
20260904153033 91 210 2.0 4.0 0.00 0.00 0.00 69 1015.2
20260904153017 91 207 1.0 4.0 0.00 0.00 0.00 69 1018.2
20260904151534 90 209 1.0 4.0 0.00 0.00 0.00 72 1015.1
20260904150037 90 200 1.0 4.0 0.00 0.00 0.00 76 1018.0
20260904150027 90 202 2.0 3.0 0.00 0.00 0.00 76 1015.2
20260904144523 88 202 1.0 4.0 0.00 0.00 0.00 78 1015.0
20260904143029 86 200 2.0 4.0 0.00 0.00 0.00 78 1015.0
20260904143021 86 199 1.0 5.0 0.00 0.00 0.00 78 1017.9
20260904141514 85 200 2.0 4.0 0.00 0.00 0.00 84 1014.9
20260904140030 84 200 1.0 4.0 0.00 0.00 0.00 86 1015.0
20260904140017 84 176 1.0 5.0 0.00 0.00 0.00 86 1017.8
20260904134507 82 163 0.0 3.0 0.00 0.00 0.00 90 1015.0
20260904133017 81 146 0.0 2.0 0.00 0.00 0.00 93 1017.6
20260904133003 81 146 0.0 0.0 0.00 0.00 0.00 93 1014.9
20260904131608 80 145 0.0 2.0 0.00 0.00 0.00 97 1014.9
20260904130055 78 145 0.0 0.0 0.00 0.00 0.00 99 1014.9
20260904130017 78 0.0 0.0 0.00 0.00 0.00 99 1017.5
20260904124552 76 145 0.0 0.0 0.00 0.00 0.00 100 1014.8
20260904123049 75 145 0.0 0.0 0.00 0.00 0.00 99 1014.7
20260904123016 75 0.0 0.0 0.00 0.00 0.00 99 1017.3
20260904121547 74 145 0.0 0.0 0.00 0.00 0.00 99 1014.6
20260904120049 74 145 0.0 0.0 0.00 0.00 0.00 98 1014.4
20260904120016 74 0.0 0.0 0.00 0.00 0.00 98 1017.1
20260904114543 74 145 0.0 0.0 0.00 0.00 0.00 98 1014.3
20260904113044 74 145 0.0 0.0 0.00 0.00 0.00 98 1014.2
20260904113016 74 0.0 0.0 0.00 0.00 0.00 98 1016.8
20260904111538 74 145 0.0 0.0 0.00 0.00 0.00 98 1014.0
20260904110037 74 145 0.0 0.0 0.00 0.00 0.00 98 1013.9
20260904110021 74 0.0 0.0 0.00 0.00 0.00 98 1016.6
20260904104548 74 145 0.0 0.0 0.00 0.00 0.00 98 1013.8
20260904103034 74 144 0.0 0.0 0.00 0.00 0.00 98 1013.7
20260904103016 74 0.0 0.0 0.00 0.00 0.00 98 1016.4
20260904101531 74 144 0.0 0.0 0.00 0.00 0.00 98 1013.8
20260904100032 75 144 0.0 0.0 0.00 0.00 0.00 97 1013.7
20260904100016 75 0.0 0.0 0.00 0.00 0.00 97 1016.3
20260904094533 75 144 0.0 0.0 0.00 0.00 0.00 98 1013.5
20260904093027 75 144 0.0 0.0 0.00 0.00 0.00 98 1013.3
20260904093016 75 0.0 2.0 0.00 0.00 0.00 98 1016.2
20260904091526 75 144 0.0 0.0 0.00 0.00 0.00 97 1013.4
20260904090025 75 144 0.0 1.0 0.00 0.00 0.00 98 1013.1
20260904090016 75 146 0.0 2.0 0.00 0.00 0.00 98 1015.8
20260904084533 75 144 0.0 2.0 0.00 0.00 0.00 98 1013.0
20260904083023 75 144 0.0 0.0 0.00 0.00 0.00 97 1013.1
20260904083016 75 0.0 0.0 0.00 0.00 0.00 97 1015.8
20260904081522 75 144 0.0 0.0 0.00 0.00 0.00 97 1013.2
20260904080027 75 144 0.0 0.0 0.00 0.00 0.00 97 1013.2
20260904080016 75 0.0 0.0 0.00 0.00 0.00 97 1016.0
20260904074520 75 144 0.0 0.0 0.00 0.00 0.00 97 1013.2
20260904073040 75 0.0 1.0 0.00 0.00 0.00 97 1016.0
20260904073020 75 144 0.0 0.0 0.00 0.00 0.00 97 1013.2
20260904071519 75 144 0.0 0.0 0.00 0.00 0.00 96 1013.3
20260904070019 75 144 0.0 0.0 0.00 0.00 0.00 97 1013.3
20260904070017 75 146 0.0 1.0 0.00 0.00 0.00 97 1016.1
20260904064524 76 144 0.0 1.0 0.00 0.00 0.00 97 1013.2
20260904063020 75 144 0.0 0.0 0.00 0.00 0.00 96 1013.2
20260904063016 75 0.0 1.0 0.00 0.00 0.00 96 1016.0
20260904061514 75 144 0.0 0.0 0.00 0.00 0.00 96 1013.2
20260904060036 76 146 0.0 1.0 0.00 0.00 0.00 96 1016.2
20260904060011 76 144 0.0 0.0 0.00 0.00 0.00 96 1013.3
20260904054513 76 144 0.0 1.0 0.00 0.00 0.00 96 1013.4
20260904053036 76 0.0 0.0 0.00 0.00 0.00 95 1016.2
20260904053017 76 144 0.0 0.0 0.00 0.00 0.00 95 1013.5
20260904051508 76 144 0.0 0.0 0.00 0.00 0.00 95 1013.4
20260904050016 77 0.0 0.0 0.00 0.00 0.00 95 1016.4
20260904050006 77 144 0.0 0.0 0.00 0.00 0.00 95 1013.6
20260904044503 77 144 0.0 0.0 0.00 0.00 0.00 95 1013.6
20260904043016 77 0.0 0.0 0.00 0.00 0.00 94 1016.4
20260904043002 77 144 0.0 0.0 0.00 0.00 0.00 94 1013.7
20260904041502 77 144 0.0 0.0 0.00 0.00 0.00 94 1013.7
20260904040020 77 0.0 0.0 0.00 0.00 0.00 94 1016.5
20260904040002 77 144 0.0 0.0 0.00 0.00 0.00 94 1013.9
20260904034501 78 144 0.0 0.0 0.00 0.00 0.00 94 1013.7
20260904033015 78 0.0 0.0 0.00 0.00 0.00 93 1016.3
20260904033002 78 144 0.0 0.0 0.00 0.00 0.00 93 1013.6
20260904031600 78 144 0.0 0.0 0.00 0.00 0.00 92 1013.7
20260904030059 78 144 0.0 0.0 0.00 0.00 0.00 92 1013.8
20260904030015 78 0.0 0.0 0.00 0.00 0.00 92 1016.4
20260904024559 79 144 0.0 0.0 0.00 0.00 0.00 92 1013.8
20260904023058 79 144 0.0 0.0 0.00 0.00 0.00 91 1013.8
20260904023016 79 0.0 0.0 0.00 0.00 0.00 91 1016.6
20260904021559 80 144 0.0 0.0 0.00 0.00 0.00 91 1013.6
20260904020057 80 144 0.0 0.0 0.00 0.00 0.00 90 1013.5
20260904020016 80 0.0 0.0 0.00 0.00 0.00 90 1016.2
20260904014601 81 144 0.0 0.0 0.00 0.00 0.00 89 1013.3
20260904013108 82 144 0.0 0.0 0.00 0.00 0.00 88 1013.2
20260904013016 82 0.0 0.0 0.00 0.00 0.00 88 1016.0
20260904011558 83 144 0.0 0.0 0.00 0.00 0.00 88 1013.2
20260904010055 83 144 0.0 0.0 0.00 0.00 0.00 86 1013.0
20260904010015 83 0.0 1.0 0.00 0.00 0.00 86 1015.6
20260904004554 84 144 0.0 0.0 0.00 0.00 0.00 85 1012.9
20260904003054 85 144 0.0 0.0 0.00 0.00 0.00 84 1012.8
20260904003020 85 146 0.0 1.0 0.00 0.00 0.00 83 1015.5
20260904001604 87 144 0.0 1.0 0.00 0.00 0.00 80 1012.9
20260904000052 90 144 0.0 0.0 0.00 0.00 0.00 76 1012.9
20260904000015 90 0.0 4.0 0.00 0.00 0.00 76 1015.6
20260903234555 92 144 0.0 0.0 0.00 0.00 0.00 73 1012.6
20260903233053 93 144 0.0 3.0 0.00 0.00 0.00 69 1012.6
20260903233035 93 145 0.0 7.0 0.00 0.00 0.00 69 1015.4